Date,TemperatureHighF,TemperatureAvgF,TemperatureLowF,DewpointHighF,DewpointAvgF,DewpointLowF,HumidityHigh,HumidityAvg,HumidityLow,PressureMaxIn,PressureMinIn,WindSpeedMaxMPH,WindSpeedAvgMPH,GustSpeedMaxMPH,PrecipitationSumIn
2013-1-1,16,10,4,-100,-100,-100,0,0,100,0.00,40.00,0,-999,0,0.00
2013-1-2,25,10,2,-100,-100,-100,0,0,100,0.00,40.00,0,-999,0,0.00
2013-1-3,23,11,4,-100,-100,-100,0,0,100,0.00,40.00,0,-999,0,0.00
2013-1-4,28,17,9,-100,-100,-100,0,0,100,0.00,40.00,0,-999,0,0.00
2013-1-5,38,25,10,-100,-100,-100,0,0,100,0.00,40.00,0,-999,0,0.00
2013-1-6,41,30,26,-100,-100,-100,0,0,100,0.00,40.00,0,-999,0,0.00
2013-1-7,43,32,25,-100,-100,-100,0,0,100,0.00,40.00,0,-999,0,0.00
2013-1-8,44,31,23,-100,-100,-100,0,0,100,0.00,40.00,0,-999,0,0.00
2013-1-9,43,33,25,-100,-100,-100,0,0,100,0.00,40.00,0,-999,0,0.00
2013-1-10,39,31,27,-100,-100,-100,0,0,100,0.00,40.00,0,-999,0,0.00
2013-1-11,28,13,1,-100,-100,-100,0,0,100,0.00,40.00,0,-999,0,0.01
2013-1-12,13,2,-5,-100,-100,-100,0,0,100,0.00,40.00,0,-999,0,0.01
2013-1-13,9,1,-5,-100,-100,-100,0,0,100,0.00,40.00,0,-999,0,0.00
2013-1-14,12,5,1,-100,-100,-100,0,0,100,0.00,40.00,0,-999,0,0.00
2013-1-15,14,5,-5,-100,-100,-100,0,0,100,0.00,40.00,0,-999,0,0.01
2013-1-16,36,24,12,-100,-100,-100,0,0,100,0.00,40.00,0,-999,0,0.00
2013-1-17,37,27,22,-100,-100,-100,0,0,100,0.00,40.00,0,-999,0,0.00
2013-1-18,39,26,19,-100,-100,-100,0,0,100,0.00,40.00,0,-999,0,0.00
2013-1-19,44,29,21,-100,-100,-100,0,0,100,0.00,40.00,0,-999,0,0.00
2013-1-20,44,31,24,-100,-100,-100,0,0,100,0.00,40.00,0,-999,0,0.00
2013-1-21,42,31,22,-100,-100,-100,0,0,100,0.00,40.00,0,-999,0,0.00
2013-1-22,45,36,29,-100,-100,-100,0,0,100,0.00,40.00,0,-999,0,0.00
2013-1-23,50,39,33,-100,-100,-100,0,0,100,0.00,40.00,0,-999,0,0.00
2013-1-24,41,35,31,-100,-100,-100,0,0,100,0.00,40.00,0,-999,0,0.00
2013-1-25,40,32,27,-100,-100,-100,0,0,100,0.00,40.00,0,-999,0,0.00
2013-1-26,41,34,30,-100,-100,-100,0,0,100,0.00,40.00,0,-999,0,0.01
2013-1-27,31,30,29,-100,-100,-100,0,0,100,0.00,40.00,0,-999,0,0.01
2013-1-28,30,27,20,-100,-100,-100,0,0,100,0.00,40.00,0,-999,0,0.02
2013-1-29,21,13,5,-100,-100,-100,0,0,100,0.00,40.00,0,-999,0,0.02
2013-1-30,18,9,-3,-100,-100,-100,0,0,100,0.00,40.00,0,-999,0,0.01
2013-1-31,29,22,13,-100,-100,-100,0,0,100,0.00,40.00,0,-999,0,0.00